CW8842 Weather Reports


Display with metric or nautical units.
time (UTC)temp
F
wind
direction
speed
MPH
gust
MPH
rain 1hr
in
rain 24hr
in
rain mn
in
humidity
%
barometer
mb
20260505002628 66 153 5.0 12.0 0.00 0.00 0.00 33 1009.2
20260505001621 67 32 2.0 9.0 0.00 0.00 0.00 35 1009.2
20260505000626 68 202 6.0 16.0 0.00 0.00 0.00 34 1009.1
20260504235641 68 184 11.0 14.0 0.00 0.00 0.00 30 1009.1
20260504234627 68 190 7.0 14.0 0.00 0.00 0.00 24 1009.0
20260504233616 68 184 6.0 12.0 0.00 0.00 0.00 26 1009.0
20260504232628 69 351 3.0 12.0 0.00 0.00 0.00 24 1009.0
20260504231616 69 165 3.0 11.0 0.00 0.00 0.00 25 1009.1
20260504230627 69 171 3.0 12.0 0.00 0.00 0.00 26 1009.0
20260504225613 69 344 4.0 13.0 0.00 0.00 0.00 26 1009.0
20260504224642 69 212 6.0 13.0 0.00 0.00 0.00 27 1009.1
20260504223627 68 5 3.0 14.0 0.00 0.00 0.00 27 1009.0
20260504222615 68 164 5.0 12.0 0.00 0.00 0.00 26 1009.0
20260504221621 68 215 6.0 11.0 0.00 0.00 0.00 27 1009.2
20260504220634 68 209 8.0 14.0 0.00 0.00 0.00 26 1009.3
20260504215615 68 335 2.0 12.0 0.00 0.00 0.00 27 1009.4
20260504214642 69 206 7.0 12.0 0.00 0.00 0.00 26 1009.6
20260504213630 69 315 3.0 12.0 0.00 0.00 0.00 25 1009.8
20260504212622 68 175 6.0 11.0 0.00 0.00 0.00 27 1010.0
20260504211631 68 200 7.0 14.0 0.00 0.00 0.00 26 1010.0
20260504210618 68 235 4.0 13.0 0.00 0.00 0.00 25 1010.1
20260504205637 68 244 7.0 17.0 0.00 0.00 0.00 28 1010.2
20260504204623 68 182 13.0 20.0 0.00 0.00 0.00 27 1010.5
20260504203615 67 231 10.0 16.0 0.00 0.00 0.00 29 1010.6
20260504202625 67 191 5.0 12.0 0.00 0.00 0.00 30 1010.5
20260504201613 67 196 8.0 19.0 0.00 0.00 0.00 30 1010.8
20260504200614 67 190 10.0 18.0 0.00 0.00 0.00 30 1010.8
20260504195634 66 182 6.0 10.0 0.00 0.00 0.00 31 1011.0
20260504194622 65 30 4.0 11.0 0.00 0.00 0.00 33 1011.0
20260504193630 64 327 10.0 14.0 0.00 0.00 0.00 31 1011.2
20260504192618 64 325 4.0 20.0 0.00 0.00 0.00 33 1011.2
20260504191630 65 355 11.0 18.0 0.00 0.00 0.00 32 1011.2
20260504190613 64 331 7.0 15.0 0.00 0.00 0.00 31 1011.4
20260504185635 64 360 7.0 18.0 0.00 0.00 0.00 34 1011.4
20260504184625 65 5 6.0 14.0 0.00 0.00 0.00 33 1011.5
20260504183619 65 355 2.0 13.0 0.00 0.00 0.00 33 1011.7
20260504182650 64 339 7.0 12.0 0.00 0.00 0.00 36 1011.8
20260504181640 65 43 6.0 10.0 0.00 0.00 0.00 33 1012.1
20260504180616 64 329 2.0 14.0 0.00 0.00 0.00 35 1012.2
20260504175619 64 22 4.0 18.0 0.00 0.00 0.00 37 1012.3
20260504174652 64 222 4.0 9.0 0.00 0.00 0.00 37 1012.3
20260504173640 64 194 2.0 7.0 0.00 0.00 0.00 39 1012.3
20260504172629 62 5 2.0 16.0 0.00 0.00 0.00 39 1012.4
20260504171619 62 100 4.0 14.0 0.00 0.00 0.00 40 1012.5
20260504170612 62 218 12.0 18.0 0.00 0.00 0.00 41 1012.4
20260504150631 60 155 3.0 5.0 0.00 0.00 0.00 38 1012.4
20260504140614 56 83 1.0 13.0 0.00 0.00 0.00 40 1012.5
20260504130630 55 163 7.0 14.0 0.00 0.00 0.00 39 1012.3
20260504110638 52 184 4.0 5.0 0.00 0.00 0.00 34 1012.1
20260504081627 50 148 0.0 1.0 0.00 0.00 0.00 37 1012.3
20260504080628 50 58 0.0 0.0 0.00 0.00 0.00 36 1012.4